This is the latest recevied weather packets stored in our database for station/object EPGD. If no packets are shown the sender has not sent any weather packets the latest 10 day(s).
| Time | Temp. | Humidity | Pressure | Rain* | Wind** | Luminosity | Snow |
|---|---|---|---|---|---|---|---|
| 1787988904 | 15° C | 100% | 1009 hPa | - | - | - | - |
| 1787987104 | 15° C | 100% | 1009 hPa | - | - | - | - |
| 1787985304 | 15° C | 100% | 1009 hPa | - | - | - | - |
| 1787983503 | 15° C | 93% | 1009 hPa | - | - | - | - |
| 1787981703 | 13.89° C | 100% | 1009 hPa | - | - | - | - |
| 1787979904 | 13.89° C | 100% | 1008 hPa | - | - | - | - |
| 1787978104 | 15° C | 87% | 1009 hPa | - | - | - | - |
| 1787976304 | 15.56° C | 77% | 1009 hPa | - | - | - | - |
| 1787974504 | 15.56° C | 77% | 1009 hPa | - | - | - | - |
| 1787972704 | 15.56° C | 77% | 1009 hPa | - | - | - | - |
| 1787970904 | 16.67° C | 72% | 1009 hPa | - | - | - | - |
| 1787969104 | 16.67° C | 72% | 1009 hPa | - | - | - | - |
| 1787967304 | 16.67° C | 72% | 1010 hPa | - | - | - | - |
| 1787965504 | 16.67° C | 72% | 1010 hPa | - | - | - | - |
| 1787963704 | 15.56° C | 77% | 1010 hPa | - | - | - | - |
| 1787961904 | 16.67° C | 72% | 1010 hPa | - | - | - | - |
| 1787960104 | 18.89° C | 59% | 1011 hPa | - | - | - | - |
| 1787956504 | 17.78° C | 67% | 1012 hPa | - | - | - | - |
| 1787954704 | 18.89° C | 55% | 1012 hPa | - | - | - | - |
| 1787952905 | 18.89° C | 55% | 1012 hPa | - | - | - | - |
| 1787949304 | 18.89° C | 59% | 1013 hPa | - | - | - | - |
| 1787945704 | 20° C | 56% | 1012 hPa | - | - | - | - |
| 1787942104 | 20° C | 56% | 1013 hPa | - | - | - | - |
| 1787938504 | 20.56° C | 49% | 1014 hPa | - | - | - | - |
| 1787936704 | 20.56° C | 49% | 1014 hPa | - | - | - | - |
* Rain since midnight (hover to see other rain measurements)
** Current wind speed in m/s (hover to see current wind gust speed)